Погода в Монтис-Кларус

Бразилия     16°44′11″S   43°52′19″W
темп.,
°C
ветер,
м/с
пор.,
м/с
влажн.,
%
обл.,
%
осадки,
мм/ч
давл.,
гПа
погр.,
м
27 февраля, сб
сб2700:00+20ююз1190100 2.2 101423
03:00+20ююз1192100 2.4 101323
06:00+20ююз1193100 0.5 101427
09:00+23всв2482100 0.9 1015573
12:00+26всв3465100 0.1 10141160
15:00+26всв3569100 0.1 10111269
18:00+22вюв3578100 0.0 1011107
21:00+21юв2276100 0.0 101343
28 февраля, вс
вс2800:00+20ююв1480100 0.0 1014152
03:00+19св128899 0.0 101251
06:00+19всв258796 0.0 1014300
09:00+23в376897 0.0 1015807
12:00+26всв4662100 0.0 10141298
15:00+27всв4662100 0.0 10101565
18:00+23вюв247797 0.0 101091
21:00+20вюв137497 0.0 101276
1 марта, пн
пн100:00+19ю1285100 0.0 101328
03:00+18ю229190 0.0 101240
06:00+18ююз119392 0.0 101326
09:00+23в367291 0.0 1014836
12:00+26в466399 0.0 10131217
15:00+27в4657100 0.0 10101555
18:00+22вюв3573100 0.0 1010133
21:00+20вюв237882 0.0 101279
2 марта, вт
вт200:00+19вюв268376 0.0 1014212
03:00+18всв119288 0.0 101324
06:00+17ююв119571 0.0 101423
09:00+22в366947 0.0 1016867
12:00+26всв475947 0.0 10151331
15:00+27всв465871 0.0 10121599
18:00+23в377539 0.0 1011167
21:00+20вюв228153 0.0 101429
3 марта, ср
ср300:00+19в018862 0.0 101628
03:00+17в119370 0.0 101523
06:00+16в119413 0.0 101723
09:00+23всв366644 0.0 1018681
12:00+27св3555100 0.0 10171506
15:00+28всв345389 0.0 10131778
18:00+23всв226971 0.0 101225
21:00+20юв227836 0.0 101547